Wind_Speed
27 27 34 35 6 12 12 17 19 12 12 9 9 9 11 12 12 9 5 3 1 3 6 8 9 10 10 9 8 7 6 9 9 9 8 4 7 8 10 9 10 12 14
24 24 25 24 21 5 11 16 11 11 13 11 9 8 8 10 13 11 9 6 7 7 9 12 13 12 11 10 9 8 7 9 9 10 11 10 8 9 10 10 13 12 14
21 19 22 14 10 6 2 4 8 11 10 11 10 7 7 8 10 13 12 10 12 11 12 14 17 17 14 12 11 10 9 9 10 11 11 11 11 11 11 12 13 14 14
16 19 16 9 8 6 9 9 10 11 10 10 11 9 8 9 9 8 10 12 14 14 15 14 15 15 14 13 13 13 12 13 13 12 12 10 10 12 14 16 18 19 19
16 18 17 13 8 10 12 13 13 11 11 11 10 10 11 10 10 10 10 11 12 12 13 13 14 15 16 15 14 14 14 15 14 13 14 15 17 18 18 18 18 20 22
20 16 15 19 16 16 16 17 16 16 15 12 12 12 12 13 12 12 12 12 13 12 13 14 17 17 17 16 16 16 16 15 15 15 17 19 20 21 21 21 23 25 29
17 15 15 17 13 13 12 13 14 15 17 16 14 15 14 13 15 15 14 15 15 14 15 15 16 18 17 16 16 15 16 16 17 17 19 20 22 24 27 28 30 31 33
13 14 15 18 16 7 7 7 8 12 15 14 17 18 17 16 16 15 15 18 18 17 17 17 17 17 17 17 16 17 18 19 21 22 22 25 27 30 32 34 37 39 41
14 16 17 18 20 9 3 5 5 3 7 9 18 25 20 20 15 15 16 17 18 16 16 17 15 16 17 18 18 19 20 22 23 26 29 30 32 34 36 38 40 42 43
18 20 20 17 19 20 16 6 9 7 7 6 5 4 7 12 14 16 14 12 14 16 19 17 15 16 18 20 22 24 26 28 29 30 32 34 36 39 41 43 43 44 43
21 23 25 22 18 18 19 17 14 12 11 8 8 5 6 9 7 10 11 12 12 14 17 18 19 21 23 25 26 28 30 32 34 36 38 40 41 44 49 46 45 44 39
22 25 24 24 22 20 20 18 15 13 12 8 7 10 9 10 14 15 17 17 18 20 22 24 25 25 27 28 30 32 34 35 38 39 42 44 45 44 42 42 38 35 34
26 27 27 25 24 23 23 19 20 19 16 15 14 14 15 16 18 20 21 23 23 25 25 26 28 30 31 32 34 36 37 38 41 43 44 44 43 41 36 33 33 33 34
29 30 30 29 29 27 26 25 23 23 22 20 21 21 21 22 23 23 24 25 26 27 27 28 30 32 35 36 37 38 39 41 42 43 43 39 36 33 32 33 34 35 35
29 30 33 33 33 32 32 29 28 26 25 26 25 25 25 24 25 25 26 27 28 29 30 32 33 34 35 37 38 40 41 41 42 40 36 33 31 31 32 34 35 36 36
29 30 31 33 37 37 36 36 33 32 29 28 28 28 28 28 30 28 28 28 29 30 31 30 32 36 38 38 39 40 40 39 35 33 32 31 31 32 34 35 35 35 37
29 29 28 29 28 27 28 32 34 33 32 31 30 29 29 29 30 31 31 33 32 30 32 34 35 37 40 39 39 37 32 33 32 31 31 31 33 34 34 34 35 36 38
30 29 28 27 25 23 23 22 25 27 28 28 29 30 29 30 30 31 33 32 33 34 36 37 38 37 37 37 36 36 35 33 31 31 30 33 34 33 34 36 36 38 39
34 32 31 28 26 27 28 25 25 24 24 24 24 25 27 29 30 31 32 34 36 37 38 38 37 36 36 36 36 35 33 31 31 31 33 35 35 35 35 36 37 38 40
33 34 32 30 31 32 31 31 35 35 33 32 30 29 30 31 31 32 34 36 35 36 38 36 35 35 35 35 33 31 31 32 33 34 36 36 36 37 37 37 39 39 39
35 35 34 37 37 38 39 38 37 37 39 37 35 32 36 34 35 35 35 35 37 37 35 32 34 33 34 33 31 30 32 34 34 35 35 35 36 36 37 38 38 39 38
41 41 40 40 40 39 40 43 44 42 40 40 40 35 38 36 37 36 36 34 36 33 33 34 35 34 33 33 31 33 35 35 37 37 36 37 38 38 39 40 39 39 37
43 43 42 42 44 43 42 42 43 43 45 45 44 36 37 36 36 36 33 33 33 32 33 33 35 35 35 32 30 35 37 36 38 36 35 38 40 40 41 40 40 39 37
43 43 43 43 43 44 44 44 44 43 44 44 45 34 32 33 35 35 34 35 36 35 33 34 35 35 34 34 36 38 37 40 38 37 37 39 41 42 42 42 41 40 38
43 43 44 45 46 45 44 43 41 39 37 36 36 34 27 29 35 37 37 39 40 41 36 36 35 35 35 37 39 35 36 38 37 40 41 40 41 42 42 42 42 40 39
43 41 42 41 42 42 38 35 34 33 33 38 38 39 32 37 38 40 36 37 44 44 39 37 36 37 36 38 36 36 38 38 40 41 42 43 43 44 44 44 43 41 40
Wind_Direction
332 334 339 340 249 169 185 191 198 205 220 223 223 220 217 202 183 179 171 172 252 358 353 346 346 351 350 346 349 355 4 340 349 355 332 324 341 333 334 305 308 321 292
331 330 339 355 10 148 195 187 196 225 225 225 228 226 226 219 209 209 214 242 283 308 320 323 326 329 325 325 324 324 324 329 332 329 326 328 331 328 324 306 310 304 307
325 333 329 329 357 4 314 247 260 253 247 247 244 237 233 228 223 223 232 252 271 291 302 310 313 316 313 314 312 312 313 317 320 319 317 317 317 312 308 306 301 297 297
331 332 343 302 300 320 298 289 279 271 266 260 253 255 259 257 249 248 252 258 271 283 293 301 302 306 307 308 308 307 310 313 314 311 311 307 305 304 303 302 300 300 300
331 329 339 332 294 295 295 292 281 275 271 269 269 261 261 263 268 268 265 267 270 276 287 295 298 301 304 305 304 302 302 304 305 304 302 301 300 299 296 296 296 297 297
319 327 327 330 302 291 289 289 279 271 264 259 260 262 269 269 268 271 268 268 270 279 284 290 294 296 296 297 297 297 297 297 297 297 298 297 297 299 300 302 305 307 305
310 323 325 338 323 289 291 271 275 275 261 257 258 267 270 272 271 267 273 273 273 280 286 289 293 293 292 292 291 291 292 292 291 291 294 298 303 304 304 303 302 301 301
301 317 321 337 345 344 21 23 298 273 265 254 261 262 256 266 268 263 269 273 274 280 287 288 291 289 290 292 292 293 294 294 297 298 299 301 303 304 304 304 303 304 304
313 317 324 330 335 348 333 13 354 328 281 286 254 254 252 254 260 272 283 280 281 281 284 285 291 290 291 294 300 302 301 298 299 300 301 301 300 299 299 301 302 303 303
298 310 314 316 322 333 347 327 331 343 328 324 341 258 253 256 269 279 289 289 298 298 284 284 291 294 296 299 297 297 295 296 295 297 299 301 303 304 304 305 304 306 309
304 302 308 309 307 315 318 320 323 330 336 318 341 306 285 274 284 301 300 293 293 301 299 289 288 290 293 297 299 299 299 300 302 305 303 303 306 308 306 307 308 307 307
297 301 298 297 299 294 301 300 300 300 302 302 285 283 278 279 280 280 285 285 290 291 291 291 291 293 293 295 297 297 297 301 302 303 305 306 304 302 303 305 306 306 306
294 298 297 298 295 291 291 303 298 294 287 285 280 276 277 277 278 282 284 287 293 295 293 292 293 293 294 295 296 297 300 303 303 304 306 307 305 304 304 306 306 306 306
291 291 289 292 292 292 290 285 282 285 286 282 282 282 278 277 278 277 278 283 285 287 288 290 292 294 295 296 297 299 302 303 306 307 305 303 301 303 305 306 307 306 305
291 290 289 285 287 286 284 283 281 277 281 285 284 283 284 284 281 280 280 283 285 287 288 289 291 292 294 295 298 302 302 304 304 302 300 301 302 303 303 305 307 306 306
296 297 293 290 287 282 278 273 277 276 274 278 282 286 289 288 288 283 284 287 290 291 291 292 295 297 297 297 300 303 303 302 301 299 299 299 300 302 305 306 306 307 308
293 295 295 298 297 296 289 272 270 268 271 275 277 281 286 288 289 291 288 292 292 290 292 294 299 302 301 299 302 302 301 301 301 298 298 300 303 305 307 306 307 307 308
285 283 289 296 294 294 294 287 274 272 275 279 278 278 281 284 285 286 288 288 287 289 292 296 300 299 299 301 305 305 305 303 298 297 298 302 303 303 303 305 307 308 310
278 282 278 284 285 286 279 275 275 276 281 282 282 279 279 280 282 282 282 285 287 290 296 300 301 301 302 303 304 303 300 297 297 296 297 302 301 299 302 304 306 309 311
276 279 275 279 283 286 287 280 277 281 288 288 287 289 290 290 287 283 283 285 287 293 298 299 299 299 299 301 300 298 296 298 299 296 298 300 299 301 302 305 307 309 310
282 280 282 278 278 280 285 289 286 283 282 284 285 290 289 291 288 284 282 284 291 293 291 290 292 294 296 298 297 296 295 296 295 295 295 294 296 298 300 302 304 308 308
283 283 282 281 280 279 278 281 285 288 288 286 288 294 295 292 288 283 283 286 288 287 289 291 292 295 294 295 294 294 295 295 295 295 294 295 298 299 301 303 305 307 305
282 282 282 280 282 282 280 280 280 281 283 284 285 287 286 285 281 280 282 284 283 285 287 289 293 294 295 295 297 296 296 295 294 295 295 297 299 299 301 302 304 304 301
280 281 282 283 283 283 283 282 280 279 279 281 283 286 284 283 277 278 283 285 286 281 281 287 289 290 292 293 295 296 298 293 294 294 295 297 297 299 299 299 301 299 298
282 281 281 280 280 281 281 281 282 281 280 284 285 287 277 278 277 280 282 284 284 283 276 281 285 286 285 289 293 296 288 290 291 292 293 293 293 295 295 296 297 296 295
283 283 284 282 282 283 285 285 280 279 288 291 277 260 282 288 278 278 283 290 282 275 270 276 279 282 282 285 290 287 285 286 288 290 290 292 293 294 295 295 295 293 293
Height
5873 5868 5859 5847 5832 5844 5849 5853 5856 5859 5861 5863 5864 5865 5865 5866 5866 5867 5868 5870 5870 5869 5869 5869 5869 5867 5866 5864 5863 5862 5862 5860 5859 5858 5858 5856 5856 5855 5856 5856 5856 5855 5854
5869 5865 5862 5855 5847 5848 5851 5854 5857 5859 5860 5861 5861 5862 5863 5864 5864 5864 5865 5867 5869 5868 5868 5868 5867 5866 5864 5863 5861 5860 5860 5859 5858 5857 5856 5856 5855 5854 5853 5853 5852 5852 5851
5867 5864 5860 5859 5856 5857 5859 5858 5858 5859 5859 5860 5860 5860 5860 5861 5862 5862 5862 5863 5865 5865 5865 5865 5865 5863 5862 5860 5858 5857 5856 5856 5855 5854 5853 5852 5851 5851 5851 5850 5849 5848 5847
5865 5863 5861 5859 5858 5858 5859 5858 5857 5857 5857 5857 5857 5857 5858 5859 5859 5859 5859 5860 5861 5862 5862 5862 5861 5860 5859 5857 5855 5854 5854 5853 5852 5851 5850 5849 5849 5848 5847 5846 5845 5843 5842
5865 5862 5859 5857 5856 5855 5854 5853 5853 5853 5853 5853 5853 5854 5855 5856 5856 5857 5857 5858 5858 5858 5858 5858 5858 5857 5855 5853 5852 5851 5850 5850 5849 5848 5848 5846 5845 5844 5843 5841 5840 5838 5836
5863 5861 5857 5854 5851 5850 5849 5848 5849 5849 5849 5849 5850 5851 5852 5852 5853 5854 5854 5855 5855 5854 5854 5853 5853 5852 5851 5849 5848 5847 5846 5845 5845 5844 5843 5842 5840 5839 5837 5836 5834 5832 5830
5862 5859 5857 5853 5848 5846 5845 5844 5843 5844 5844 5846 5847 5847 5848 5848 5850 5850 5851 5851 5851 5851 5850 5850 5849 5848 5847 5845 5844 5844 5842 5841 5840 5838 5837 5836 5835 5833 5832 5830 5827 5825 5823
5860 5858 5855 5852 5847 5845 5842 5838 5840 5840 5840 5840 5842 5842 5843 5844 5845 5845 5846 5846 5846 5846 5845 5845 5844 5843 5842 5841 5840 5839 5838 5838 5836 5835 5833 5831 5829 5828 5825 5822 5819 5815 5812
5857 5855 5853 5851 5847 5842 5841 5840 5839 5838 5838 5836 5835 5836 5838 5839 5840 5840 5840 5840 5840 5840 5839 5839 5838 5838 5838 5837 5836 5835 5833 5832 5830 5829 5828 5826 5823 5820 5817 5813 5809 5805 5801
5856 5853 5851 5849 5847 5842 5840 5838 5836 5834 5835 5834 5833 5833 5834 5835 5835 5836 5835 5835 5836 5835 5835 5834 5834 5833 5833 5832 5830 5829 5828 5826 5824 5821 5819 5817 5814 5811 5807 5803 5799 5793 5790
5853 5851 5848 5847 5844 5842 5840 5838 5836 5835 5834 5833 5832 5831 5831 5832 5830 5831 5830 5831 5831 5830 5830 5830 5828 5828 5827 5826 5824 5822 5821 5819 5817 5813 5810 5806 5802 5799 5794 5790 5787 5783 5780
5848 5846 5846 5843 5841 5839 5837 5836 5835 5834 5833 5832 5831 5830 5828 5827 5827 5826 5826 5826 5825 5825 5824 5823 5822 5821 5820 5818 5816 5815 5812 5809 5808 5804 5802 5798 5794 5791 5788 5782 5778 5774 5770
5842 5841 5839 5838 5837 5835 5833 5832 5832 5831 5830 5830 5829 5827 5826 5824 5823 5822 5822 5821 5820 5819 5818 5817 5816 5815 5812 5810 5808 5806 5803 5801 5799 5795 5791 5787 5783 5780 5776 5772 5769 5766 5763
5836 5834 5833 5831 5831 5830 5828 5827 5827 5825 5823 5824 5823 5822 5821 5820 5819 5818 5817 5816 5814 5813 5812 5810 5808 5806 5805 5802 5800 5797 5794 5791 5787 5784 5781 5777 5774 5770 5766 5763 5760 5757 5755
5829 5828 5825 5825 5824 5822 5821 5820 5820 5819 5817 5816 5816 5815 5815 5814 5813 5812 5811 5809 5808 5807 5805 5803 5801 5799 5797 5795 5791 5788 5784 5781 5777 5774 5771 5767 5764 5761 5759 5755 5752 5748 5744
5821 5820 5818 5816 5814 5813 5811 5811 5811 5811 5810 5810 5809 5807 5806 5806 5804 5803 5802 5801 5800 5799 5797 5795 5793 5791 5789 5786 5782 5778 5775 5771 5768 5765 5762 5759 5756 5752 5749 5746 5742 5738 5734
5813 5811 5810 5807 5805 5802 5801 5800 5801 5802 5802 5801 5800 5798 5798 5798 5797 5796 5795 5793 5791 5790 5788 5786 5784 5781 5778 5774 5771 5769 5767 5761 5758 5755 5753 5750 5746 5743 5739 5736 5733 5729 5725
5804 5803 5802 5801 5799 5797 5795 5794 5794 5794 5793 5792 5791 5789 5789 5789 5788 5787 5786 5784 5783 5781 5779 5777 5774 5771 5768 5764 5760 5756 5754 5750 5747 5745 5743 5740 5736 5733 5731 5727 5722 5719 5715
5795 5794 5793 5793 5793 5791 5791 5789 5789 5787 5786 5784 5783 5782 5781 5780 5779 5778 5776 5775 5773 5771 5769 5766 5763 5759 5755 5752 5749 5746 5743 5741 5739 5737 5734 5731 5728 5724 5720 5716 5713 5709 5705
5786 5785 5783 5783 5783 5782 5781 5781 5780 5779 5778 5777 5775 5774 5773 5772 5770 5768 5767 5765 5763 5761 5757 5754 5751 5748 5745 5742 5739 5736 5733 5731 5729 5726 5724 5720 5717 5714 5711 5707 5703 5699 5695
5777 5776 5775 5774 5773 5772 5771 5771 5770 5769 5769 5768 5767 5766 5763 5762 5761 5759 5756 5754 5751 5749 5746 5744 5741 5739 5735 5732 5730 5727 5724 5722 5720 5717 5714 5711 5707 5704 5701 5698 5694 5689 5685
5766 5765 5765 5763 5762 5762 5761 5759 5758 5757 5756 5755 5754 5754 5750 5749 5748 5747 5744 5742 5740 5737 5734 5731 5728 5727 5725 5723 5721 5717 5714 5712 5708 5706 5703 5700 5697 5694 5691 5688 5684 5680 5675
5753 5752 5752 5751 5748 5748 5747 5746 5745 5744 5743 5742 5742 5741 5738 5737 5736 5734 5734 5732 5729 5726 5723 5721 5717 5714 5712 5711 5710 5707 5704 5701 5698 5696 5692 5689 5686 5683 5680 5676 5673 5669 5665
5740 5739 5737 5736 5735 5734 5733 5732 5731 5730 5729 5727 5726 5729 5726 5725 5723 5721 5720 5719 5717 5715 5713 5710 5707 5704 5701 5700 5698 5695 5693 5688 5686 5684 5682 5678 5675 5672 5669 5665 5662 5658 5655
5726 5725 5723 5722 5720 5721 5720 5719 5717 5715 5714 5713 5712 5712 5714 5714 5710 5708 5706 5705 5704 5702 5701 5698 5697 5694 5691 5688 5686 5686 5681 5678 5677 5674 5671 5668 5665 5662 5658 5654 5650 5647 5643
5713 5712 5710 5709 5707 5707 5707 5706 5705 5705 5704 5702 5700 5699 5699 5699 5698 5697 5697 5694 5691 5688 5687 5686 5684 5682 5680 5676 5676 5672 5669 5667 5665 5662 5659 5656 5652 5648 5645 5641 5637 5634 5631